Location: Dürabuch
(48.2640°N, 11.2185°E)
Time: 19:08:24
(UTC+00:00)

NOSS 3-4 (C) - Pass Details

Date: 23 May 2024
Orbit: 814 x 1397 km, 63.4° (Epoch: 04 June)

Event Time Altitude Azimuth Distance (km) Brightness Sun altitude
Rises 00:34:26 0° 315° (NW) 3,806 6.9 -18.7°
Reaches altitude 10° 00:37:05 10° 308° (NW) 2,932 6.2 -18.5°
Maximum altitude 00:43:33 40° 242° (WSW) 1,677 4.3 -18.1°
Enters shadow 00:47:18 25° 192° (SSW) 2,265 4.8 -17.9°
